Voltar ao catálogo

THORAD DELTA 1 DEB

AtivoSSO
NORAD 42608·DEBRIS·🇺🇸 United States

Lançado Nov 15, 1974 de Vandenberg Space Force Base

Loading…

Próximas Passagens (próximas 24 horas)

TLE

AtualizadoSource: Space-Track

Época: Sep 11, 2026, 22:29 UTC

1 42608U 74089FZ  26254.93735294 -.00000034  00000-0  98409-4 0  9991
2 42608 102.5486 244.0031 0074051  62.0031 298.8491 12.28118100574079

Acompanhe THORAD DELTA 1 DEB em tempo real com AllMySat

Download on the App Store